Pagina principală
METAR-TAF:

METAR-TAF

Aeroporturi :

Cuenca, Ecuador

Latitudine: 02-53-22S, longitudine: 078-59-04W, elevație: 2532 m

Observații meteo curente

Raportul a fost făcut în urmă cu 5 ore și 16 de minute, la 04:00 UTC
Vânt 2 kt de la Vest
Temperatură 14°C
Umiditate 82%
Presiune 1028 hPa
Vizibilitate de 10 km sau mai mult
Nori puțini la o înălțime de 3300 picior

METAR: SECU 140400Z 27002KT 9999 FEW033 14/11 Q1028

Ora: 04:16 (09:16 UTC)


TAF: lipsă

Observații și prognoze meteo pentru peste 4.000 de aeroporturi (rapoarte METAR și TAF).

Stațiile disponibile sunt reprezentate pe hartă prin puncte galbene și roșii.

Țineți indicatorul mouse-ului pe punctul dorit pentru a vedea denumirea stației.

Apoi, faceți clic pentru a vedea observațiile și prognozele meteorologice.

Pentru a schimba harta: Pentru mărire, faceți clic pe butoanele verzi cu cruce neagră; pentru micșorare, pe butonul verde cu o liniuță; pentru hărți învecinate, pe săgețile verzi.


METAR-TAF: